ABS-2A (MONGOLSAT-1) (41588 NORAD) Tracking and Keplerian Element Data

This shows tracking and keplerian element data for the satellite.

Feedback or suggestion? Click here.




ElementValue
Catalog41588
NameABS-2A (MONGOLSAT-1)
Epoch Orbit2927
Epoch Day157.82896855
Epoch Year2024
RAAN351.8503
Inclination0.0193
Eccentricity0.0001408
Argument of Perigee9.4405
Mean Anonmoly266.5882
Mean Motion1.00268645
Decay Rate-8.1E-07
L11 41588U 16038A 24157.82896855 -.00000081 00000+0 00000+0 0 9992
L22 41588 0.0193 351.8503 0001408 9.4405 266.5882 1.00268645 29270



Live tracking and technical data element details for ABS-2A (MONGOLSAT-1) (NORAD 41588). ABS-2A (MONGOLSAT-1) can be tracked NOW for your location showing map with azimuth and elevation plus other details from your city location.







IsCatalogInMostPopularTable: catalog: 41588, numindb: 666
Update: records affected: 1



GetName: 41588 ABS-2A (MONGOLSAT-1)

Hit Count: updated at: Mon, 17 Jun 2024 23:25:52 GMT